When you browse on this site, cookies collect data to enhance your experience and personalize the content and advertising you see.
Visit our Privacy Policy to learn more. By continuing to use the site, you agree to this use of cookies and data.
EN

Hourly Weather Pekarevo

Today, 21 September, Monday

Time Temperature Precipitation Wind Pressure Humidity
00:00 +4°C° 0 mm 3 mps 740 mmHg 92%
01:00 +4°C° 0 mm 3 mps 740 mmHg 91%
02:00 +4°C° 0 mm 3 mps 740 mmHg 92%
03:00 +4°C° 0 mm 3 mps 740 mmHg 92%
04:00 +4°C° 0 mm 3 mps 739 mmHg 92%
05:00 +4°C° 0 mm 4 mps 739 mmHg 92%
06:00 +5°C° 0 mm 4 mps 739 mmHg 89%
07:00 +6°C° 0 mm 4 mps 739 mmHg 86%
08:00 +7°C° 0 mm 5 mps 739 mmHg 83%
09:00 +9°C° 0 mm 5 mps 739 mmHg 77%
10:00 +10°C° 0 mm 5 mps 739 mmHg 72%
11:00 +13°C° 0 mm 5 mps 738 mmHg 67%
12:00 +13°C° 0 mm 5 mps 738 mmHg 68%
13:00 +14°C° 0 mm 5 mps 738 mmHg 68%
14:00 +15°C° 0 mm 5 mps 738 mmHg 69%
15:00 +14°C° 0 mm 5 mps 738 mmHg 72%
16:00 +14°C° 0 mm 4 mps 738 mmHg 76%
17:00 +13°C° 0 mm 3 mps 738 mmHg 79%
18:00 +12°C° 0 mm 3 mps 738 mmHg 83%
19:00 +11°C° 0 mm 3 mps 738 mmHg 88%
20:00 +11°C° 0 mm 3 mps 738 mmHg 92%
21:00 +10°C° 0 mm 3 mps 738 mmHg 93%
22:00 +10°C° 0 mm 3 mps 738 mmHg 94%
23:00 +10°C° 0 mm 3 mps 737 mmHg 95%

Tomorrow, 22 September, Tuesday

Time Temperature Precipitation Wind Pressure Humidity
00:00 +10°C° 0 mm 4 mps 737 mmHg 95%
01:00 +10°C° 0 mm 4 mps 737 mmHg 96%
02:00 +10°C° 0 mm 4 mps 738 mmHg 96%
03:00 +10°C° 0 mm 4 mps 737 mmHg 96%
04:00 +10°C° 0 mm 4 mps 737 mmHg 96%
05:00 +10°C° 0 mm 4 mps 737 mmHg 96%
06:00 +10°C° 0 mm 5 mps 737 mmHg 92%
07:00 +12°C° 0 mm 5 mps 737 mmHg 88%
08:00 +12°C° 0 mm 5 mps 737 mmHg 83%
09:00 +14°C° 0 mm 5 mps 737 mmHg 77%
10:00 +15°C° 0 mm 6 mps 737 mmHg 70%
11:00 +17°C° 0 mm 6 mps 737 mmHg 63%
12:00 +17°C° 0 mm 6 mps 737 mmHg 62%
13:00 +17°C° 0 mm 6 mps 737 mmHg 60%
14:00 +19°C° 0 mm 6 mps 737 mmHg 58%
15:00 +17°C° 0 mm 5 mps 737 mmHg 64%
16:00 +16°C° 0 mm 5 mps 737 mmHg 70%
17:00 +15°C° 0 mm 4 mps 737 mmHg 75%
18:00 +14°C° 0 mm 4 mps 737 mmHg 80%
19:00 +13°C° 0 mm 4 mps 737 mmHg 84%
20:00 +12°C° 0 mm 3 mps 737 mmHg 89%
21:00 +12°C° 0 mm 3 mps 737 mmHg 91%
22:00 +11°C° 0 mm 3 mps 737 mmHg 92%
23:00 +11°C° 0 mm 3 mps 737 mmHg 94%

Day after tomorrow, 23 September, Wednesday

Time Temperature Precipitation Wind Pressure Humidity
00:00 +10°C° 0 mm 3 mps 737 mmHg 94%
01:00 +10°C° 0 mm 2 mps 737 mmHg 94%
02:00 +10°C° 0 mm 2 mps 737 mmHg 95%
03:00 +10°C° 0 mm 2 mps 737 mmHg 95%
04:00 +9°C° 0 mm 2 mps 737 mmHg 95%
05:00 +9°C° 0 mm 2 mps 737 mmHg 95%
06:00 +10°C° 0 mm 2 mps 737 mmHg 91%
07:00 +13°C° 0 mm 2 mps 738 mmHg 87%
08:00 +13°C° 0 mm 3 mps 738 mmHg 83%
09:00 +14°C° 0 mm 3 mps 738 mmHg 78%
10:00 +17°C° 0 mm 3 mps 738 mmHg 73%
11:00 +19°C° 0 mm 3 mps 738 mmHg 67%
12:00 +20°C° 0 mm 3 mps 738 mmHg 65%
13:00 +20°C° 0 mm 4 mps 737 mmHg 63%
14:00 +21°C° 0 mm 4 mps 737 mmHg 60%
15:00 +20°C° 0 mm 3 mps 737 mmHg 65%
16:00 +18°C° 0 mm 3 mps 737 mmHg 70%
17:00 +17°C° 0 mm 2 mps 737 mmHg 75%
18:00 +16°C° 0 mm 3 mps 737 mmHg 78%
19:00 +13°C° 0 mm 3 mps 737 mmHg 81%
20:00 +12°C° 0 mm 3 mps 737 mmHg 84%
21:00 +12°C° 0 mm 3 mps 737 mmHg 83%
22:00 +11°C° 0 mm 3 mps 737 mmHg 83%
23:00 +11°C° 0 mm 3 mps 737 mmHg 83%

24 September, Thursday

Time Temperature Precipitation Wind Pressure Humidity
00:00 +10°C° 0 mm 2 mps 737 mmHg 82%
01:00 +10°C° 0 mm 2 mps 737 mmHg 82%
02:00 +10°C° 0 mm 2 mps 737 mmHg 82%
03:00 +9°C° 0 mm 2 mps 737 mmHg 82%
04:00 +9°C° 0 mm 2 mps 737 mmHg 82%
05:00 +9°C° 0 mm 2 mps 737 mmHg 82%
06:00 +10°C° 0 mm 2 mps 737 mmHg 78%
07:00 +12°C° 0 mm 2 mps 738 mmHg 74%
08:00 +12°C° 0 mm 3 mps 738 mmHg 70%
09:00 +14°C° 0 mm 3 mps 738 mmHg 66%
10:00 +17°C° 0 mm 3 mps 738 mmHg 62%
11:00 +18°C° 0 mm 3 mps 738 mmHg 58%
12:00 +19°C° 0 mm 3 mps 738 mmHg 55%
13:00 +20°C° 0 mm 3 mps 738 mmHg 53%
14:00 +21°C° 0 mm 3 mps 738 mmHg 51%
15:00 +19°C° 0 mm 3 mps 738 mmHg 57%
16:00 +18°C° 0 mm 2 mps 738 mmHg 64%
17:00 +16°C° 0 mm 2 mps 737 mmHg 71%
18:00 +15°C° 0 mm 2 mps 737 mmHg 74%
19:00 +14°C° 0 mm 2 mps 738 mmHg 77%
20:00 +13°C° 0 mm 2 mps 738 mmHg 80%
21:00 +13°C° 0 mm 2 mps 738 mmHg 80%
22:00 +12°C° 0 mm 2 mps 738 mmHg 80%
23:00 +12°C° 0 mm 2 mps 738 mmHg 80%

25 September, Friday

Time Temperature Precipitation Wind Pressure Humidity
00:00 +10°C° 0 mm 2 mps 738 mmHg 81%
01:00 +10°C° 0 mm 2 mps 738 mmHg 81%
02:00 +10°C° 0 mm 2 mps 738 mmHg 82%
03:00 +10°C° 0 mm 2 mps 738 mmHg 82%
04:00 +9°C° 0 mm 2 mps 738 mmHg 82%
05:00 +9°C° 0 mm 2 mps 738 mmHg 82%
06:00 +10°C° 0 mm 3 mps 738 mmHg 77%
07:00 +12°C° 0 mm 3 mps 738 mmHg 73%
08:00 +13°C° 0 mm 3 mps 739 mmHg 69%
09:00 +16°C° 0 mm 3 mps 739 mmHg 65%
10:00 +17°C° 0 mm 3 mps 739 mmHg 62%
11:00 +19°C° 0 mm 3 mps 739 mmHg 58%
12:00 +20°C° 0 mm 3 mps 739 mmHg 56%
13:00 +21°C° 0 mm 3 mps 739 mmHg 55%
14:00 +21°C° 0 mm 3 mps 739 mmHg 53%
15:00 +20°C° 0 mm 3 mps 738 mmHg 60%
16:00 +19°C° 0 mm 3 mps 738 mmHg 67%
17:00 +17°C° 0 mm 3 mps 738 mmHg 74%
18:00 +16°C° 0 mm 3 mps 738 mmHg 76%
19:00 +14°C° 0 mm 3 mps 738 mmHg 79%
20:00 +14°C° 0 mm 3 mps 738 mmHg 81%
21:00 +13°C° 0 mm 3 mps 738 mmHg 81%
22:00 +13°C° 0 mm 3 mps 738 mmHg 81%
23:00 +12°C° 0 mm 3 mps 738 mmHg 80%

26 September, Saturday

Time Temperature Precipitation Wind Pressure Humidity
00:00 +12°C° 0 mm 3 mps 738 mmHg 80%
01:00 +12°C° 0 mm 3 mps 738 mmHg 79%
02:00 +11°C° 0 mm 3 mps 738 mmHg 78%
03:00 +11°C° 0 mm 3 mps 738 mmHg 77%
04:00 +11°C° 0 mm 3 mps 738 mmHg 77%
05:00 +11°C° 0 mm 3 mps 738 mmHg 76%
06:00 +12°C° 0 mm 3 mps 738 mmHg 73%
07:00 +13°C° 0 mm 4 mps 738 mmHg 69%
08:00 +14°C° 0 mm 4 mps 738 mmHg 66%
09:00 +15°C° 0 mm 4 mps 738 mmHg 62%
10:00 +18°C° 0 mm 4 mps 738 mmHg 59%
11:00 +20°C° 0 mm 5 mps 738 mmHg 55%
12:00 +20°C° 0 mm 5 mps 738 mmHg 54%
13:00 +21°C° 0 mm 5 mps 738 mmHg 53%
14:00 +22°C° 0 mm 5 mps 738 mmHg 52%
15:00 +21°C° 0 mm 4 mps 738 mmHg 57%
16:00 +19°C° 0 mm 4 mps 738 mmHg 62%
17:00 +18°C° 0 mm 4 mps 738 mmHg 67%
18:00 +18°C° 0 mm 4 mps 738 mmHg 67%
19:00 +17°C° 0 mm 4 mps 738 mmHg 68%
20:00 +15°C° 0 mm 4 mps 738 mmHg 68%
21:00 +15°C° 0 mm 4 mps 738 mmHg 68%
22:00 +15°C° 0 mm 4 mps 739 mmHg 68%
23:00 +14°C° 0 mm 4 mps 739 mmHg 68%
Show more